NULL Weather Reports


Display with metric or nautical units.
time (UTC)temp
F
wind
direction
speed
MPH
gust
MPH
rain 1hr
in
rain 24hr
in
rain mn
in
humidity
%
barometer
mb
20260906124536 75 214 0.0 0.0 0.00 0.00 0.00 85 1012.2
20260906124514 73 130 0.0 0.0 0.00 0.00 0.00 77 1011.8
20260906123034 74 359 0.0 0.0 0.00 0.00 0.00 84 1012.1
20260906123012 74 130 0.0 0.0 0.00 0.00 0.00 78 1011.4
20260906121531 74 208 0.0 0.0 0.00 0.00 0.00 84 1011.9
20260906121511 73 130 0.0 0.0 0.00 0.00 0.00 74 1011.4
20260906120030 74 210 0.0 0.0 0.00 0.00 0.00 85 1011.6
20260906120010 73 130 0.0 0.0 0.00 0.00 0.00 73 1010.8
20260906114536 74 210 0.0 0.0 0.00 0.00 0.00 85 1011.6
20260906114509 73 130 0.0 0.0 0.00 0.00 0.00 73 1010.9
20260906113028 74 209 0.0 0.0 0.00 0.00 0.00 85 1011.4
20260906113008 73 130 0.0 0.0 0.00 0.00 0.00 72 1010.8
20260906111527 74 208 0.0 0.0 0.00 0.00 0.00 85 1011.4
20260906111506 73 130 0.0 0.0 0.00 0.00 0.00 72 1010.8
20260906110037 74 210 0.0 0.0 0.00 0.00 0.00 85 1011.3
20260906110006 73 130 0.0 0.0 0.00 0.00 0.00 72 1010.9
20260906104525 74 210 0.0 0.0 0.00 0.00 0.00 85 1011.2
20260906104505 73 130 0.0 0.0 0.00 0.00 0.00 71 1011.0
20260906103024 74 359 0.0 0.0 0.00 0.00 0.00 85 1011.2
20260906103004 73 130 0.0 0.0 0.00 0.00 0.00 69 1011.1
20260906101523 75 212 0.0 0.0 0.00 0.00 0.00 84 1011.3
20260906101505 73 130 0.0 0.0 0.00 0.00 0.00 68 1011.0
20260906100022 75 211 0.0 0.0 0.00 0.00 0.00 84 1011.3
20260906100001 73 130 0.0 0.0 0.00 0.00 0.00 68 1011.0
20260906094529 75 359 0.0 0.0 0.00 0.00 0.00 85 1011.2
20260906094504 73 130 0.0 0.0 0.00 0.00 0.00 68 1011.2
20260906093100 73 130 0.0 0.0 0.00 0.00 0.00 67 1011.3
20260906093019 75 212 0.0 0.0 0.00 0.00 0.00 85 1011.1
20260906091608 73 130 0.0 0.0 0.00 0.00 0.00 67 1011.1
20260906091519 75 208 0.0 0.0 0.00 0.00 0.00 85 1010.9
20260906090059 73 130 0.0 0.0 0.00 0.00 0.00 71 1011.2
20260906090018 75 214 0.0 0.0 0.00 0.00 0.00 85 1010.8
20260906084656 72 130 0.0 0.0 0.00 0.00 0.00 72 1011.4
20260906084517 75 210 0.0 0.0 0.00 0.00 0.00 85 1010.8
20260906083055 72 130 0.0 0.0 0.00 0.00 0.00 72 1011.5
20260906083016 76 359 0.0 0.0 0.00 0.00 0.00 84 1010.7
20260906081558 73 130 0.0 0.0 0.00 0.00 0.00 72 1011.5
20260906081535 76 359 0.0 0.0 0.00 0.00 0.00 85 1010.7
20260906080014 76 209 0.0 0.0 0.00 0.00 0.00 85 1010.6
20260906074550 73 130 0.0 0.0 0.00 0.00 0.00 71 1011.4
20260906074513 76 359 0.0 0.0 0.00 0.00 0.00 85 1010.7
20260906073048 73 130 0.0 0.0 0.00 0.00 0.00 69 1011.4
20260906073010 76 359 0.0 0.0 0.00 0.00 0.00 84 1010.7
20260906071557 74 130 0.0 0.0 0.00 0.00 0.00 69 1011.7
20260906071508 77 359 0.0 0.0 0.00 0.00 0.00 84 1010.7
20260906070040 74 130 0.0 0.0 0.00 0.00 0.00 68 1011.6
20260906070007 77 209 0.0 0.0 0.00 0.00 0.00 84 1010.9
20260906064540 74 130 0.0 0.0 0.00 0.00 0.00 67 1011.5
20260906064505 77 208 0.0 0.0 0.00 0.00 0.00 84 1010.9
20260906063039 74 130 0.0 0.0 0.00 0.00 0.00 66 1011.5
20260906063007 77 208 0.0 0.0 0.00 0.00 0.00 84 1011.1
20260906061539 75 130 0.0 0.0 0.00 0.00 0.00 64 1011.6
20260906061506 77 359 0.0 0.0 0.00 0.00 0.00 84 1011.2
20260906060038 75 130 0.0 0.0 0.00 0.00 0.00 62 1011.6
20260906060002 78 359 0.0 0.0 0.00 0.00 0.00 84 1011.2
20260906054540 75 130 0.0 0.0 0.00 0.00 0.00 61 1011.7
20260906054500 78 359 0.0 0.0 0.00 0.00 0.00 84 1011.2
20260906053106 78 208 0.0 0.0 0.00 0.00 0.00 84 1011.1
20260906053039 76 130 0.0 0.0 0.00 0.00 0.00 61 1011.9
20260906051557 79 208 0.0 0.0 0.00 0.00 0.00 84 1011.2
20260906051536 76 130 0.0 0.0 0.00 0.00 0.00 61 1011.7
20260906050114 79 208 0.0 0.0 0.00 0.00 0.00 84 1011.1
20260906050037 76 130 0.0 0.0 0.00 0.00 0.00 63 1011.7
20260906044556 79 211 0.0 0.0 0.00 0.00 0.00 84 1010.9
20260906044536 76 130 0.0 0.0 0.00 0.00 0.00 67 1011.8
20260906043056 80 359 0.0 0.0 0.00 0.00 0.00 84 1010.9
20260906043037 76 130 0.0 0.0 0.00 0.00 0.00 66 1011.7
20260906041554 80 359 0.0 0.0 0.00 0.00 0.00 83 1010.9
20260906041535 76 130 0.0 0.0 0.00 0.00 0.00 65 1011.7
20260906040117 80 359 0.0 0.0 0.00 0.00 0.00 83 1010.7
20260906040038 77 130 0.0 0.0 0.00 0.00 0.00 64 1011.5
20260906034603 81 204 0.0 2.0 0.00 0.00 0.00 82 1010.6
20260906034543 77 130 0.0 0.0 0.00 0.00 0.00 63 1011.4
20260906033054 81 226 0.0 0.0 0.00 0.00 0.00 81 1010.5
20260906033034 77 129 0.0 0.0 0.00 0.00 0.00 63 1011.3
20260906031600 81 224 0.0 2.0 0.00 0.00 0.00 81 1010.5
20260906031534 77 129 0.0 0.0 0.00 0.00 0.00 62 1011.3
20260906030053 82 226 1.0 3.0 0.00 0.00 0.00 80 1010.2
20260906030032 78 132 0.0 0.0 0.00 0.00 0.00 61 1011.1
20260906024551 82 126 0.0 2.0 0.00 0.00 0.00 79 1010.1
20260906024532 78 132 0.0 0.0 0.00 0.00 0.00 60 1011.0
20260906023052 83 129 0.0 1.0 0.00 0.00 0.00 79 1010.0
20260906023032 78 124 0.0 0.0 0.00 0.00 0.00 59 1011.2
20260906021601 83 122 0.0 0.0 0.00 0.00 0.00 78 1009.9
20260906021531 79 128 0.0 0.0 0.00 0.00 0.00 57 1011.1
20260906020056 84 359 0.0 0.0 0.00 0.00 0.00 78 1009.6
20260906020034 79 149 0.0 0.0 0.00 0.00 0.00 57 1011.1
20260906014557 84 359 0.0 0.0 0.00 0.00 0.00 76 1009.4
20260906014543 80 144 0.0 0.0 0.00 0.00 0.00 57 1011.1
20260906013049 85 359 0.0 0.0 0.00 0.00 0.00 76 1009.4
20260906013033 81 161 0.0 0.0 0.00 0.00 0.00 56 1011.1
20260906011550 86 359 0.0 0.0 0.00 0.00 0.00 75 1009.2
20260906011538 81 148 0.0 0.0 0.00 0.00 0.00 51 1011.0
20260906010048 87 359 0.0 0.0 0.00 0.00 0.00 74 1009.1
20260906010029 83 150 0.0 0.0 0.00 0.00 0.00 46 1011.0
20260906004553 88 81 0.0 0.0 0.00 0.00 0.00 73 1009.1
20260906004537 84 126 0.0 0.0 0.00 0.00 0.00 41 1011.0
20260906003047 89 81 0.0 2.0 0.00 0.00 0.00 70 1009.3
20260906003044 84 153 0.0 0.0 0.00 0.00 0.00 37 1010.9
20260906001544 90 81 0.0 0.0 0.00 0.00 0.00 69 1009.2
20260906001528 84 145 0.0 0.0 0.00 0.00 0.00 35 1011.0
20260906000039 91 81 0.0 1.0 0.00 0.00 0.00 67 1009.2
20260906000026 85 168 0.0 0.0 0.00 0.00 0.00 33 1011.0
20260905234535 92 81 0.0 0.0 0.00 0.00 0.00 64 1009.1
20260905234525 86 153 0.0 0.0 0.00 0.00 0.00 32 1010.9
20260905233032 93 81 0.0 0.0 0.00 0.00 0.00 59 1009.0
20260905233025 87 153 0.0 0.0 0.00 0.00 0.00 34 1010.9
20260905231524 93 81 0.0 1.0 0.00 0.00 0.00 60 1009.0
20260905230021 88 148 0.0 0.0 0.00 0.00 0.00 34 1010.9
20260905230018 94 81 0.0 2.0 0.00 0.00 0.00 57 1008.9
20260905224526 88 137 0.0 0.0 0.00 0.00 0.00 33 1011.0
20260905224513 95 40 0.0 3.0 0.00 0.00 0.00 55 1008.9
20260905223025 96 122 3.0 6.0 0.00 0.00 0.00 48 1009.0
20260905223017 87 144 0.0 0.0 0.00 0.00 0.00 34 1011.1
20260905221515 87 140 0.0 0.0 0.00 0.00 0.00 35 1011.3
20260905221502 96 52 1.0 6.0 0.00 0.00 0.00 48 1009.0
20260905220016 86 156 0.0 0.0 0.00 0.00 0.00 37 1011.3
20260905214550 97 18 2.0 7.0 0.00 0.00 0.00 45 1009.2
20260905214512 87 141 0.0 0.0 0.00 0.00 0.00 38 1011.5
20260905213042 96 235 0.0 5.0 0.00 0.00 0.00 45 1009.4
20260905213022 87 140 0.0 0.0 0.00 0.00 0.00 38 1011.8
20260905211543 96 54 2.0 5.0 0.00 0.00 0.00 47 1009.7
20260905211508 88 140 0.0 0.0 0.00 0.00 0.00 37 1011.9
20260905210026 96 311 3.0 8.0 0.00 0.00 0.00 48 1010.1
20260905210011 88 174 0.0 0.0 0.00 0.00 0.00 38 1011.9
20260905204520 96 41 1.0 5.0 0.00 0.00 0.00 47 1010.1
20260905204507 88 177 0.0 0.0 0.00 0.00 0.00 39 1012.0
20260905203115 97 32 2.0 5.0 0.00 0.00 0.00 47 1010.3
20260905203005 88 175 0.0 0.0 0.00 0.00 0.00 37 1012.1
20260905201509 96 291 0.0 6.0 0.00 0.00 0.00 48 1010.3
20260905201504 89 140 0.0 0.0 0.00 0.00 0.00 39 1012.1
20260905200003 88 137 0.0 0.0 0.00 0.00 0.00 42 1012.3
20260905200001 95 4 3.0 6.0 0.00 0.00 0.00 48 1010.6
20260905194557 95 354 4.0 6.0 0.00 0.00 0.00 49 1010.8
20260905194503 88 137 0.0 0.0 0.00 0.00 0.00 44 1012.4
20260905193109 88 135 0.0 1.0 0.00 0.00 0.00 39 1012.6
20260905193049 94 327 2.0 5.0 0.00 0.00 0.00 53 1010.9
20260905191600 87 147 0.0 0.0 0.00 0.00 0.00 37 1012.8
20260905191544 93 68 3.0 6.0 0.00 0.00 0.00 56 1011.0
20260905190059 87 125 0.0 0.0 0.00 0.00 0.00 42 1013.1
20260905190038 93 69 1.0 3.0 0.00 0.00 0.00 56 1011.1
20260905184550 85 156 0.0 0.0 0.00 0.00 0.00 42 1013.2
20260905184536 94 92 1.0 3.0 0.00 0.00 0.00 54 1011.2
20260905183052 84 148 0.0 0.0 0.00 0.00 0.00 42 1013.3
20260905183027 94 154 2.0 4.0 0.00 0.00 0.00 54 1011.4
20260905181547 84 143 0.0 0.0 0.00 0.00 0.00 45 1013.5
20260905181522 94 133 3.0 7.0 0.00 0.00 0.00 55 1011.5
20260905180121 95 120 1.0 3.0 0.00 0.00 0.00 55 1011.7
20260905180044 82 175 0.0 0.0 0.00 0.00 0.00 50 1013.7
20260905174541 82 156 0.0 0.0 0.00 0.00 0.00 50 1013.7
20260905174506 93 183 0.0 3.0 0.00 0.00 0.00 59 1012.1
20260905173058 92 42 2.0 4.0 0.00 0.00 0.00 60 1012.3
20260905173037 81 144 0.0 0.0 0.00 0.00 0.00 55 1013.6
20260905171603 90 26 1.0 4.0 0.00 0.00 0.00 64 1012.2
20260905171533 79 140 0.0 0.0 0.00 0.00 0.00 61 1013.7
20260905170055 90 48 1.0 4.0 0.00 0.00 0.00 62 1012.4
20260905170028 77 138 0.0 0.0 0.00 0.00 0.00 66 1013.6
20260905164548 90 58 2.0 4.0 0.00 0.00 0.00 62 1012.6
20260905164526 74 193 0.0 0.0 0.00 0.00 0.00 72 1013.7
20260905163045 90 21 1.0 3.0 0.00 0.00 0.00 63 1012.4
20260905163020 73 196 0.0 0.0 0.00 0.00 0.00 77 1013.6
20260905161542 88 54 1.0 3.0 0.00 0.00 0.00 65 1012.5
20260905161517 71 202 0.0 0.0 0.00 0.00 0.00 80 1013.5
20260905160046 87 29 1.0 6.0 0.00 0.00 0.00 65 1012.4
20260905160033 70 193 0.0 0.0 0.00 0.00 0.00 83 1013.5
20260905154550 88 85 1.0 3.0 0.00 0.00 0.00 65 1012.2
20260905154509 69 149 0.0 0.0 0.00 0.00 0.00 85 1013.5
20260905153033 87 123 1.0 3.0 0.00 0.00 0.00 65 1012.1
20260905153006 68 149 0.0 0.0 0.00 0.00 0.00 85 1013.3
20260905151530 85 133 1.0 3.0 0.00 0.00 0.00 67 1012.0
20260905151505 68 145 0.0 0.0 0.00 0.00 0.00 85 1013.1
20260905150026 84 133 1.0 3.0 0.00 0.00 0.00 69 1012.1
20260905150005 66 144 0.0 0.0 0.00 0.00 0.00 86 1013.1
20260905144535 82 190 2.0 5.0 0.00 0.00 0.00 71 1011.9
20260905144504 65 138 0.0 0.0 0.00 0.00 0.00 87 1013.0
20260905143018 81 208 1.0 3.0 0.00 0.00 0.00 78 1011.8
20260905143002 64 138 0.0 0.0 0.00 0.00 0.00 89 1012.8
20260905141515 79 182 0.0 2.0 0.00 0.00 0.00 83 1011.9
20260905141502 63 136 0.0 0.0 0.00 0.00 0.00 89 1012.7
20260905140101 63 136 0.0 0.0 0.00 0.00 0.00 90 1012.6
20260905140011 78 182 1.0 2.0 0.00 0.00 0.00 83 1011.9
20260905134601 62 136 0.0 0.0 0.00 0.00 0.00 90 1012.6
20260905134510 77 182 0.0 2.0 0.00 0.00 0.00 84 1011.9
20260905133058 63 136 0.0 0.0 0.00 0.00 0.00 89 1012.4
20260905133009 76 182 0.0 0.0 0.00 0.00 0.00 85 1011.6
20260905131559 63 136 0.0 0.0 0.00 0.00 0.00 89 1012.2
20260905131508 75 185 0.0 0.0 0.00 0.00 0.00 85 1011.5
20260905130056 63 135 0.0 0.0 0.00 0.00 0.00 89 1012.2
20260905130005 74 185 0.0 0.0 0.00 0.00 0.00 85 1011.2